Regional Weather Roundup
Issued by NWS

Home | Current Version | Previous Version | Graphics & Text | Print | Product List | Glossary On
Versions: 1 2 3 4 5 6 7 8 9 10 11 12 13 14 15 16 17 18 19 20 21 22 23 24 25 26 27 28 29 30 31 32 33 34 35 36 37 38 39 40 41 42 43 44 45 46 47 48 49 50
881
ASUS43 KLSX 261607
RWRMO

WEATHER SUMMARY FOR MISSOURI
NATIONAL WEATHER SERVICE SPRINGFIELD MO
1100 AM CDT MON JUN 26 2017

NOTE: "FAIR" INDICATES FEW OR NO CLOUDS BELOW 12,000 FEET WITH NO
       SIGNIFICANT WEATHER AND/OR OBSTRUCTIONS TO VISIBILITY.
       CURRENT SKY AND/OR WEATHER CONDITIONS ARE NOT AVAILABLE FOR
       CHILLICOTHE AND FARMINGTON.

MOZ001>031-035>038-043-044-053-054-261700-
...NORTHERN AND WESTERN MISSOURI...

CITY           SKY/WX    TMP DP  RH WIND       PRES   REMARKS
KANSAS CTY INT CLOUDY    60  55  83 NE14      30.25R
KANSAS C DTWN  CLOUDY    62  56  80 NE8       30.23S
LEE`S SUMMIT   CLOUDY    62  58  86 NE8       30.24F
ST JOSEPH      LGT RAIN  59  58  96 E10       30.24F FOG
CHILLICOTHE      N/A     60  56  86 NE5       30.28R
KIRKSVILLE     CLOUDY    60  53  77 N3        30.29R

$$
MOZ066>068-077>081-088>096-101>105-261700-
...SOUTHWEST MISSOURI...

CITY           SKY/WX    TMP DP  RH WIND       PRES   REMARKS
SPRINGFIELD    CLOUDY    71  61  70 S5        30.21F
JOPLIN         CLOUDY    74  61  63 S8        30.21F
BRANSON        PTSUNNY   75  55  50 SE8       30.24F

$$
MOZ032>034-039>042-045>050-055>058-069>072-261700-
...CENTRAL MISSOURI...

CITY           SKY/WX    TMP DP  RH WIND       PRES   REMARKS
COLUMBIA       SUNNY     74  50  42 S5        30.23S
JEFFERSON CITY SUNNY     75  49  39 VRB3      30.22S
ROLLA          SUNNY     73  49  42 VRB7      30.21F
SEDALIA        SUNNY     77  55  46 SE5       30.22F
WHITEMAN AFB   TSTM      70  56  61 NW12      30.25R FOG
WARRENSBURG    CLOUDY    66  55  68 NW9       30.25R
OSAGE BEACH    SUNNY     75  52  44 S7        30.22S

$$
MOZ051-052-059>065-261700-
...EAST CENTRAL MISSOURI...

CITY           SKY/WX    TMP DP  RH WIND       PRES   REMARKS
ST LOUIS INTL  MOSUNNY   77  43  29 CALM      30.20F
SPIRIT OF STL  MOSUNNY   76  49  38 N6        30.20F
ST CHARLES     SUNNY     75  48  38 W7        30.19F

$$
MOZ072>076-082>087-097>100-106>115-261700-
...SOUTH CENTRAL AND SOUTHEAST MISSOURI...

CITY           SKY/WX    TMP DP  RH WIND       PRES   REMARKS
CAPE GIRARDEAU CLOUDY    73  49  42 CALM      30.22F
FARMINGTON     SUNNY     73  50  44 SE5       30.24S
POPLAR BLUFF   CLOUDY    69  59  70 CALM      30.22F
WEST PLAINS    SUNNY     70  62  76 VRB3      30.24F

$$



USA.gov is the U.S. government's official web portal to all federal, state and local government web resources and services.